{"data":{"norad_id":48774,"epoch":"2026-09-19T18:09:04.582656Z","epoch_age_seconds":86150,"freshness":"FRESH","line1":"1 48774U 21045H   26262.75630304 -.00000033  00000+0 -12244-3 0  9991","line2":"2 48774  87.8981 240.3595 0002419  74.6952 285.4445 13.15547757256796","mean_motion":13.15547757,"eccentricity":0.0002419,"inclination_deg":87.8981,"raan_deg":240.3595,"arg_perigee_deg":74.6952,"mean_anomaly_deg":285.4445,"bstar":-0.00012244,"rev_number":25679,"period_min":109.46010833417,"perigee_km":1199.9402331009,"apogee_km":1203.6073939525,"semimajor_km":7579.9108135267,"source":"CELESTRAK","updated_at":"2026-09-20T09:00:44.616327Z"}}